{"data":{"norad_id":59369,"intl_designator":"2024-060X","name":"STARLINK-31583","alt_names":[],"object_type":"PAYLOAD","status":"ACTIVE","operator":null,"country":"US","launch_date":"2024-03-31","launch_site_code":"AFETR","launch_vehicle":null,"mission":null,"orbit_class":"UNKNOWN","rcs_meters":null,"size_class":null,"mass_kg":null,"dimensions":null,"purposes":["comms"],"wikipedia_slug":null,"has_3d_model":false,"image_url":null,"decayed_at":null,"tle_current":{"epoch":"2026-05-25T03:37:44.434272Z","epoch_age_seconds":58136,"freshness":"FRESH","line1":"1 59369U 24060X   26145.15120873  .00000912  00000+0  42677-4 0  9990","line2":"2 59369  43.0027 177.0536 0001279 257.7016 102.3693 15.27576894121884","mean_motion":15.27576894,"eccentricity":0.0001279,"inclination_deg":43.0027,"raan_deg":177.0536,"arg_perigee_deg":257.7016,"mean_anomaly_deg":102.3693,"bstar":4.2677e-5,"rev_number":12188,"period_min":94.266940384868,"perigee_km":482.18084964557,"apogee_km":483.93594342801,"semimajor_km":6861.1953965368,"source":"CELESTRAK","updated_at":"2026-05-25T13:38:18.912719Z"}}}